Weather History for KMVY - August, 2014

Change the Weather History Date:

Thursday, August 7, 2014

  Actual Average Record
Temperature  
Mean Temperature 66 °F -  
Max Temperature 79 °F 79 °F 88 °F (1980)
Min Temperature 53 °F 62 °F 33 °F (1996)
Cooling Degree Days 1    
Growing Degree Days 16 (Base 50)    
Moisture  
Dew Point 57 °F    
Average Humidity 78    
Maximum Humidity 100    
Minimum Humidity 43    
Precipitation  
Precipitation 0.06 in - - ()
Sea Level Pressure  
Sea Level Pressure 29.88 in    
Wind  
Wind Speed 6 mph (WNW)    
Max Wind Speed 15 mph    
Max Gust Speed -    
Visibility 10 miles    
Events Rain    
Averages and records for this station are not official NWS values.
T = Trace of Precipitation, MM = Missing Value Source: NWS Daily Summary

Daily Weather History Graph

Daily Weather History Graph

Search for Another Location

Airport or City:

Trip Planner

Search our weather history database for the weather conditions in past years. The results will help you decide how hot, cold, wet, or windy it might be!

Date:

Astronomy

Aug. 07, 2014 Rise Set
Actual Time 5:43 AM EDT 7:52 PM EDT
Civil Twilight 5:12 AM EDT 8:22 PM EDT
Nautical Twilight 4:35 AM EDT 9:00 PM EDT
Astronomical Twilight 3:54 AM EDT 9:41 PM EDT
Moon 5:06 PM EDT (8/7) 2:09 AM EDT (8/7)
Length of Visible Light 15h 10m
Length of Day
14h 09m
Waxing Gibbous, 86% of the Moon is Illuminated
Aug 7
Waxing Gibbous
Aug 10
Full
Aug 17
Last Quarter
Aug 25
New
Sep 2
First Quarter

Hourly Weather History & Observations

Time (EDT) Temp. Dew Point Humidity Pressure Visibility Wind Dir Wind Speed Gust Speed Precip Events Conditions
12:53 AM 61.0 °F 60.1 °F 97% 29.83 in 9.0 mi WNW 5.8 mph - N/A   Clear
1:53 AM 61.0 °F 60.1 °F 97% 29.83 in 10.0 mi NW 4.6 mph - N/A   Clear
2:53 AM 57.9 °F 57.0 °F 97% 29.83 in 10.0 mi NW 5.8 mph - N/A   Clear
3:53 AM 57.9 °F 57.0 °F 97% 29.84 in 10.0 mi North 3.5 mph - N/A   Clear
4:53 AM 57.9 °F 57.0 °F 97% 29.85 in 10.0 mi WNW 5.8 mph - N/A   Clear
5:53 AM 57.9 °F 57.0 °F 97% 29.86 in 10.0 mi NNW 4.6 mph - N/A   Clear
6:53 AM 62.1 °F 59.0 °F 90% 29.87 in 10.0 mi North 5.8 mph - N/A   Clear
7:53 AM 66.9 °F 60.1 °F 79% 29.88 in 10.0 mi NNW 8.1 mph - N/A   Clear
8:53 AM 70.0 °F 59.0 °F 68% 29.88 in 10.0 mi NNW 6.9 mph - N/A   Clear
9:53 AM 72.0 °F 59.0 °F 64% 29.89 in 10.0 mi NNW 10.4 mph - N/A   Clear
10:53 AM 75.0 °F 57.9 °F 55% 29.88 in 10.0 mi Variable 5.8 mph - N/A   Clear
11:53 AM 77.0 °F 54.0 °F 45% 29.88 in 10.0 mi Variable 6.9 mph - N/A   Clear
12:53 PM 77.0 °F 53.1 °F 43% 29.88 in 10.0 mi WNW 8.1 mph - N/A   Clear
1:53 PM 78.1 °F 54.0 °F 43% 29.87 in 10.0 mi Calm Calm - N/A   Clear
2:53 PM 77.0 °F 57.0 °F 50% 29.86 in 10.0 mi SSW 15.0 mph - N/A   Partly Cloudy
3:53 PM 73.9 °F 59.0 °F 59% 29.86 in 10.0 mi SW 10.4 mph - N/A   Clear
4:53 PM 73.0 °F 59.0 °F 61% 29.87 in 10.0 mi SW 9.2 mph - N/A   Clear
5:53 PM 69.1 °F 57.0 °F 65% 29.88 in 10.0 mi SW 5.8 mph - 0.00 in Rain Light Rain
6:53 PM 64.0 °F 59.0 °F 84% 29.90 in 10.0 mi Calm Calm - 0.05 in Rain Light Rain
7:53 PM 63.0 °F 62.1 °F 97% 29.90 in 10.0 mi Calm Calm - 0.00 in Rain Light Rain
8:53 PM 60.1 °F 59.0 °F 96% 29.93 in 9.0 mi Calm Calm - 0.01 in   Clear
9:53 PM 55.9 °F 55.9 °F 100% 29.94 in 7.0 mi Calm Calm - N/A   Clear
10:53 PM 54.0 °F 53.1 °F 97% 29.94 in 10.0 mi West 4.6 mph - N/A   Clear
11:53 PM 53.1 °F 53.1 °F 100% 29.94 in 10.0 mi WNW 3.5 mph - N/A   Clear